This is the latest recevied weather packets stored in our database for station/object SP3SWJ-13. If no packets are shown the sender has not sent any weather packets the latest 10 day(s).
| Time | Temp. | Humidity | Pressure | Rain* | Wind** | Luminosity | Snow |
|---|---|---|---|---|---|---|---|
| 1777742270 | 23.89° C | 29% | 1008.8 hPa | - | - | 30 W/m² | - |
| 1777741969 | 23.89° C | 29% | 1008.9 hPa | - | - | 33 W/m² | - |
| 1777741668 | 24.44° C | 29% | 1008.9 hPa | - | - | 37 W/m² | - |
| 1777741368 | 24.44° C | 28% | 1008.9 hPa | - | - | 40 W/m² | - |
| 1777741066 | 24.44° C | 28% | 1008.9 hPa | - | - | 44 W/m² | - |
| 1777740765 | 25° C | 28% | 1009 hPa | - | - | 50 W/m² | - |
| 1777740464 | 25.56° C | 26% | 1009 hPa | - | - | 57 W/m² | - |
| 1777740164 | 25° C | 27% | 1009.1 hPa | - | - | 66 W/m² | - |
| 1777739863 | 24.44° C | 27% | 1009.2 hPa | - | - | 76 W/m² | - |
| 1777739562 | 24.44° C | 28% | 1009.3 hPa | - | - | 87 W/m² | - |
| 1777739261 | 25° C | 28% | 1009.3 hPa | - | - | 99 W/m² | - |
| 1777738961 | 25° C | 28% | 1009.4 hPa | - | - | 110 W/m² | - |
| 1777738660 | 25.56° C | 26% | 1009.4 hPa | - | - | 122 W/m² | - |
| 1777738358 | 25.56° C | 26% | 1009.5 hPa | - | - | 133 W/m² | - |
| 1777738057 | 25.56° C | 27% | 1009.5 hPa | - | - | 145 W/m² | - |
| 1777737757 | 25° C | 27% | 1009.7 hPa | - | - | 157 W/m² | - |
| 1777737456 | 25.56° C | 26% | 1009.7 hPa | - | - | 168 W/m² | - |
| 1777737155 | 25° C | 26% | 1009.7 hPa | - | - | 182 W/m² | - |
| 1777736854 | 26.11° C | 25% | 1009.9 hPa | - | - | 194 W/m² | - |
| 1777736553 | 26.67° C | 25% | 1009.8 hPa | - | - | 206 W/m² | - |
| 1777736252 | 26.11° C | 24% | 1009.9 hPa | - | - | 219 W/m² | - |
| 1777735951 | 25.56° C | 24% | 1010 hPa | - | - | 232 W/m² | - |
| 1777735650 | 26.11° C | 25% | 1010.2 hPa | - | - | 246 W/m² | - |
| 1777735349 | 26.67° C | 24% | 1010.1 hPa | - | - | 261 W/m² | - |
| 1777735048 | 26.67° C | 25% | 1010.3 hPa | - | - | 270 W/m² | - |
* Rain since midnight (hover to see other rain measurements)
** Current wind speed in m/s (hover to see current wind gust speed)